Location: Dornbirn
(47.4124°N, 9.7438°E)
Time: 07:39:15
(UTC+02:00)

ISS - Visible Passes

Search period start: 20 October 2019 00:00
Search period end: 29 October 2019 23:00
Orbit: 411 x 421 km, 51.6° (Epoch: 20 October)

Date Brightness Start Highest point End Pass type
(mag) Time Alt. Az. Time Alt. Az. Time Alt. Az.
24 Oct -0.9 06:49:15 10° S 06:51:28 17° SE 06:53:42 10° E visible
25 Oct -0.5 06:02:31 10° SE 06:03:05 10° SE 06:03:39 10° ESE visible
26 Oct -2.3 06:47:31 10° SSW 06:50:40 37° SE 06:53:48 10° ENE visible
27 Oct -1.7 05:00:39 18° S 05:02:09 24° SE 05:04:56 10° E visible
28 Oct -0.8 04:14:29 14° ESE 04:14:29 14° ESE 04:15:46 10° E visible
28 Oct -3.7 05:47:24 16° WSW 05:49:58 80° SSE 05:53:21 10° ENE visible
29 Oct -3.3 05:01:05 51° S 05:01:21 53° SSE 05:04:39 10° ENE visible
